星链-32087 (STARLINK-32087 )

导读

STARLINK-32087是美国于2024年5月8日发射的Starlink(星链)低轨通信卫星,隶属于SpaceX公司打造的星链卫星互联网星座,星链项目旨在为全球提供高速卫星互联网接入服务,尤其是为偏远地区、海上以及空中等难以覆盖传统地面网络的区域提供网络连接,发射后该卫星将进入预定低地球轨道,为星链星座的持续扩容和全球服务覆盖提供支撑。

Basic Information
目录编号:
59702
目录名称:
STARLINK-32087
国际标识:
2024-086W
轨道中心:
EARTH
卫星名称:
星链-32087
卫星全名:
星链-32087 (STARLINK-32087 )
卫星状态:
在轨 (已飞行849 天)
发射日期:
2024-05-08 UTC
国别 :
美国 (US)
星等 :
--
Orbit Information
数据来源 国际轨道数据 AOE轨道数据
星历时间 2026-09-04T09:37:01+0800
8小时前
查看轨道信息
2026-09-02T05:00:00+0800
2天前
查看轨道信息
半长轴 6861.191km 6861.193km
偏心率 0.0000985 0.0001587
轨道倾角 43.003° 43.001°
近地点辐角 244.919° 196.349°
升交点赤经 132.431° 144.824°
平近点角 115.156° 333.086°
近地点 482.378km 481.967km
远地点 483.73km 484.145km
周期 94.267分钟 94.267分钟
每日圈数 15.275786 15.275778
Detailed Information
固有亮度:
5
最大亮度:
1.5
卫星平台:
Starlink v2.0 mini
覆盖范围:
全球
运营商:
太空探索技术公司
运营商所在国:
美国
制造商(研发单位):
太空探索技术公司
制造商所在国:
美国
使用方式:
暂无
Satellite Introduction
星链(Starlink)计划是由太空探索技术公司(SpaceX)提出的一个巨型低轨卫星互联网星座项目,计划在2019年至2024年间在太空搭建由约1.2万颗卫星组成的“星链”网络,其中1584颗将部署在地球上空550千米处的近地轨道,并从2020年开始工作。该卫星仍在工作。
2D Orbit Map
3D Orbit Map
Orbit Altitude Analysis Chart
Orbit Inclination Analysis Chart
Orbit Comprehensive Analysis Chart
View Comprehensive Chart
Conjunction Data List
Event ID Objects TCA Miss Dist (km) Collision Risk Probability Collision Risk Index (CRI) Action
CDM_260905-232105-970206-356921
2026-09-05T
23:21:05+0000
0.499 km
远距离
1.38929E-4 高风险 0.78
CDM_260905-082905-970206-657021
2026-09-05T
08:29:14+0000
0.780 km
远距离
3.367026E-5 中风险 0.66
CDM_260906-141505-970206-356921
2026-09-06T
14:15:33+0000
0.830 km
远距离
3.187615E-5 中风险 0.65
CDM_260905-012505-970206-657021
2026-09-05T
01:25:33+0000
1.261 km
极远距离
6.572441E-6 低风险 0.51
CDM_260905-214605-970206-356921
2026-09-05T
21:46:56+0000
1.339 km
极远距离
6.217707E-6 低风险 0.51
CDM_260904-235105-970206-657021
2026-09-04T
23:51:24+0000
1.799 km
极远距离
2.17486E-6 低风险 0.42
CDM_260906-124105-970206-356921
2026-09-06T
12:41:24+0000
1.934 km
极远距离
2.054612E-6 低风险 0.41
CDM_260905-065505-970206-657021
2026-09-05T
06:55:05+0000
1.903 km
极远距离
1.871551E-6 低风险 0.4
CDM_260906-005505-970206-356921
2026-09-06T
00:55:15+0000
2.300 km
极远距离
1.385714E-6 低风险 0.38
CDM_260906-154905-970206-356921
2026-09-06T
15:49:42+0000
2.715 km
极远距离
1.045138E-6 低风险 0.35